27P/Crommelin (2011)

Japanese version
Home page
Total 6,336 html files since Dec. 4, 1995
Updated on June 29, 2006

---------------------------------------------------------------------

* Profile

* Orbital Elements

Epoch 2011 July 18.0 TT = JDT 2455760.5  
T 2011 Aug.  3.80622 TT                                 Muraoka 
q   0.7478700            (2000.0)            P               Q
n   0.03529411     Peri.  195.98046     +0.09145027     -0.88487627
a   9.2045220      Node   250.63826     +0.95843555     +0.20269620
e   0.9187497      Incl.   28.95629     +0.27025571     -0.41941416
P  27.93
From 242 observations 1873-1984, mean residual 1".55.  Nongravitational
   parameters A1 = -0.06 +/- 0.02, A2 = -0.0003 +/- 0.0000.

* Finding Charts

* Magnitudes Graph

        m1 = 12.0 + 5 log d + 20.0 log r

---------------------------------------------------------------------

The orbital elements are calculated by Kenji Muraoka.
The charts are made with StellaNavigator Ver.2.0 for Windows (AstroArts / ASCII).
The magnitudes graphs are made with Comet for Windows.

---------------------------------------------------------------------

Copyright(C) 1995-2008 Seiichi Yoshida (comet@aerith.net). All rights reserved.